User: anonymous   Login
Location: Meriden
(44.0740°N, 93.3870°W)
Time: 09:42:01
(UTC-06:00)
Language:

AO-27 - Orbit

View from above orbital plane
View from above orbital plane
View from above satellite
View from above satellite

Ground track
Ground track

The orbit data is extracted from the following two-line orbital elements,

1 22825U 93061C   14332.08977148  .00000237  00000-0  10965-3 0  8293
2 22825 098.6831 277.4488 0008752 170.3780 251.4183 14.29789934104201
Epoch (UTC): 28 November 2014 02:09:16
Eccentricity: 0.0008752
inclination: 98.6831°
perigee height: 786 km
apogee height: 799 km
right ascension of ascending node: 277.4488°
argument of perigee: 170.3780°
revolutions per day: 14.29789934
mean anomaly at epoch: 251.4183°
orbit number at epoch: 10420

The dashed part of the orbit path shows where the satellite is in the earth's shadow,  

DLR